[Date Prev][Date Next][Thread Prev][Thread Next] - [Date Index][Thread Index][Author Index]
2 Line ISS Keps 12-28
- Subject: [sarex] 2 Line ISS Keps 12-28
- From: "Dave Larsen Ph.D." <doc@xxxxxxxxxxx>
- Date: Sat, 28 Dec 2002 02:00:19 -0800
ISS
1 25544U 98067A 02362.20456019 .00023077 00000-0 30528-3 0 5187
2 25544 51.6339 159.0696 0004089 324.9748 23.7548 15.58208132234365
----
Via the sarex mailing list at AMSAT.ORG courtesy of AMSAT-NA.
To unsubscribe, send "unsubscribe sarex" to Majordomo@amsat.org
AMSAT Home